Stations météo

Publicité
Nancy/Essey, France (7180): Température de l'air & dewpoint: 09.11.2019 16:00:00 - 15.11.2019 16:00:00 (CET)Nancy/Essey, France (7180): Température de l'air 5cm: 09.11.2019 16:00:00 - 15.11.2019 16:00:00 (CET)Nancy/Essey, France (7180): Température de l'air -20cm & Température de l'air -100cm: 09.11.2019 16:00:00 - 15.11.2019 16:00:00 (CET)Nancy/Essey, France (7180): Vitesse du vent & gusts: 09.11.2019 16:00:00 - 15.11.2019 16:00:00 (CET)Nancy/Essey, France (7180): Direction du vent: 09.11.2019 16:00:00 - 15.11.2019 16:00:00 (CET)Nancy/Essey, France (7180): reduced air pressure: 09.11.2019 16:00:00 - 15.11.2019 16:00:00 (CET)Nancy/Essey, France (7180): visibility: 09.11.2019 16:00:00 - 15.11.2019 16:00:00 (CET)Nancy/Essey, France (7180): Ensoleillement: 09.11.2019 16:00:00 - 15.11.2019 16:00:00 (CET)Nancy/Essey, France (7180): Quantités de précipitations: 09.11.2019 16:00:00 - 15.11.2019 16:00:00 (CET)
Date & Time tt [°C] td [°C] tt 5cm [°C] tt -20cm [°C] tt -100cm [°C] ff [km/h] ff [knt] fx [km/h] fx [knt] dd ppp [hPa] vv [km] sd [min] rr [mm]
15.11.2019 16:00:00 5,1 1,6 4,9 8,5 12,2 14 7 26 14 S 1002,5 60 0 0,0
15.11.2019 15:00:00 5,3 1,9 5,3 8,5 12,2 12 6 23 13 S 1001,8 60 0 0,0
15.11.2019 14:00:00 5,1 2,1 4,6 8,4 12,2 15 8 35 19 S 1001,4 60 0 0,0
15.11.2019 13:00:00 4,4 1,8 4,7 8,4 12,2 21 11 36 20 S 1001,4 60 5 0,0
15.11.2019 12:00:00 5,3 2,8 4,1 8,4 12,3 16 9 44 24 S 1000,6 55 8 0,0
15.11.2019 11:00:00 4,2 2,4 3,8 8,5 12,3 21 12 42 23 S 1000,4 18 3 0,0
15.11.2019 10:00:00 3,6 2,0 2,8 8,5 12,3 11 6 25 14 S 999,4 11 0 0,2
15.11.2019 09:00:00 3,7 2,4 3,2 8,5 12,3 10 6 16 8 SSE 998,9 7 0 0,0
15.11.2019 08:00:00 3,8 2,0 3,1 8,5 12,3 5 3 9 5 SSE 997,5 8 0 0,2
15.11.2019 07:00:00 3,7 1,6 3,2 8,5 12,3 3 2 11 6 NNE 996,8 12 0 0,0
15.11.2019 06:00:00 3,7 1,4 3,0 8,6 12,3 9 5 19 10 NNE 995,5 12 0 0,0
15.11.2019 05:00:00 3,8 1,3 2,7 8,6 12,3 14 8 23 13 NNE 995,3 14 0 0,0
15.11.2019 04:00:00 3,7 1,2 2,6 8,6 12,3 15 8 28 15 NE 995,9 14 0 0,0
15.11.2019 03:00:00 3,7 1,4 2,3 8,6 12,3 16 9 28 15 NE 996,6 14 0 0,0
15.11.2019 02:00:00 3,6 1,5 2,0 8,6 12,4 11 6 18 10 NE 997,1 15 0 0,0
15.11.2019 01:00:00 4,3 1,7 3,0 8,6 12,4 11 6 16 8 NNE 998,1 27 0 0,0
15.11.2019 00:00:00 4,8 1,6 3,2 8,7 12,4 8 5 16 9 NNE 998,9 40 0 0,0
14.11.2019 23:00:00 4,9 1,7 3,6 8,7 12,4 5 3 16 9 N 998,9 49 0 0,0
14.11.2019 22:00:00 5,1 2,4 4,0 8,6 12,4 10 5 20 11 NNE 999,5 48 0 0,0
14.11.2019 21:00:00 4,9 3,2 3,9 8,6 12,4 9 5 18 10 ENE 1000,0 35 0 0,0
14.11.2019 20:00:00 4,9 3,2 4,0 8,7 12,4 10 5 21 12 NNE 1000,2 47 0 0,0
14.11.2019 19:00:00 4,6 3,6 3,9 8,6 12,4 10 6 16 9 NE 1001,0 28 0 0,0
14.11.2019 18:00:00 4,5 3,5 3,8 8,6 12,4 6 3 9 5 NNE 1001,1 46 0 0,0
14.11.2019 17:00:00 4,7 3,8 4,1 8,6 12,4 6 3 11 6 ENE 1001,4 36 0 0,0
14.11.2019 16:00:00 5,0 3,8 4,6 8,6 12,4 7 4 11 6 E 1001,7 31 0 0,4
14.11.2019 15:00:00 5,4 3,2 4,7 8,5 12,4 10 5 18 10 S 1002,3 11 0 0,2
14.11.2019 14:00:00 5,6 2,6 6,0 8,5 12,4 10 6 26 14 SSW 1001,6 60 4 0,0
14.11.2019 13:00:00 5,3 2,6 4,8 8,6 12,5 11 6 28 15 S 1001,9 60 0 0,0
14.11.2019 12:00:00 4,8 2,8 4,4 8,5 12,5 18 10 36 20 S 1002,7 60 0 0,0
14.11.2019 11:00:00 4,7 2,4 4,2 8,5 12,5 22 12 38 20 S 1002,6 14 0 0,4
14.11.2019 10:00:00 5,6 2,2 3,7 8,5 12,5 13 7 25 13 S 1001,8 43 6 0,2
14.11.2019 09:00:00 3,8 2,0 2,1 8,6 12,5 6 3 9 5 SE 1001,5 60 0 0,0
14.11.2019 08:00:00 2,9 1,4 1,3 8,6 12,5 3 2 9 5 NE 1000,8 60 0 0,0
14.11.2019 07:00:00 3,7 1,4 1,9 8,6 12,5 5 3 12 7 SE 1000,9 60 0 0,0
14.11.2019 06:00:00 3,9 1,4 2,6 8,7 12,6 6 3 20 11 SE 1000,4 60 0 0,0
14.11.2019 05:00:00 4,2 2,1 2,6 8,7 12,6 14 8 24 13 ESE 1000,1 60 0 0,0
14.11.2019 04:00:00 3,7 2,2 2,5 8,7 12,6 11 6 28 15 ESE 1000,4 47 0 0,0
14.11.2019 03:00:00 3,9 2,6 2,4 8,7 12,6 10 6 20 11 ESE 1001,2 38 0 0,0
14.11.2019 02:00:00 4,8 3,0 3,3 8,7 12,6 14 8 23 12 SSE 1002,0 46 0 0,0
14.11.2019 01:00:00 5,5 3,5 4,4 8,7 12,6 13 7 29 16 SSE 1002,8 40 0 0,0
14.11.2019 00:00:00 5,5 3,7 4,6 8,7 12,6 11 6 27 14 SSE 1003,5 32 0 0,0
13.11.2019 23:00:00 5,2 3,8 4,1 8,7 12,6 13 7 23 12 SSE 1004,2 23 0 0,0
13.11.2019 22:00:00 5,3 3,9 4,4 8,7 12,6 12 6 24 13 SSE 1004,8 17 0 0,0
13.11.2019 21:00:00 5,4 4,2 4,7 8,7 12,6 13 7 22 12 S 1005,4 14 0 0,0
13.11.2019 20:00:00 5,1 4,2 4,6 8,7 12,7 13 7 24 13 SSW 1005,8 6 0 0,2
13.11.2019 19:00:00 5,0 3,8 4,5 8,7 12,6 11 6 21 11 S 1006,1 11 0 0,0
13.11.2019 18:00:00 4,8 3,9 4,3 8,7 12,7 11 6 22 12 S 1006,0 11 0 0,0
13.11.2019 17:00:00 4,7 3,8 4,4 8,6 12,6 12 6 22 12 S 1005,9 12 0 0,2
13.11.2019 16:00:00 4,9 3,9 4,6 8,6 12,7 11 6 24 13 S 1006,0 12 0 0,0
13.11.2019 15:00:00 4,8 3,8 4,5 8,6 12,7 14 8 24 13 S 1005,8 13 0 0,0
13.11.2019 14:00:00 4,8 3,8 4,5 8,6 12,7 11 6 22 12 S 1005,9 8 0 0,4
13.11.2019 13:00:00 4,3 3,1 4,4 8,6 12,7 11 6 19 11 S 1006,0 12 0 0,0
13.11.2019 12:00:00 4,1 2,8 4,1 8,6 12,7 9 5 22 12 S 1006,1 22 0 0,0
13.11.2019 11:00:00 4,0 2,5 3,8 8,7 12,7 14 8 22 12 SSW 1006,1 16 0 0,0
13.11.2019 10:00:00 3,4 2,4 2,7 8,7 12,7 12 6 24 13 S 1005,8 13 0 0,0
13.11.2019 09:00:00 2,8 1,9 2,2 8,8 12,7 8 5 16 8 S 1005,3 12 0 0,0
13.11.2019 08:00:00 2,5 1,5 1,6 8,8 12,7 9 5 18 10 S 1005,1 8 0 0,0
13.11.2019 07:00:00 1,8 1,1 0,7 8,9 12,7 8 4 17 9 SE 1004,7 28 0 0,0
13.11.2019 06:00:00 1,4 0,7 -0,1 8,9 12,7 9 5 18 10 SE 1004,4 19 0 0,0
13.11.2019 05:00:00 1,0 0,4 -1,3 9,0 12,8 9 5 14 8 SE 1004,2 19 0 0,0
13.11.2019 04:00:00 1,5 0,9 -0,9 9,1 12,8 3 1 8 4 S 1004,3 18 0 0,0
13.11.2019 03:00:00 1,0 0,4 -2,8 9,2 12,8 6 3 16 9 SW 1005,0 17 0 0,0
13.11.2019 02:00:00 0,3 -0,1 -3,4 9,2 12,8 7 4 12 7 SSE 1004,9 14 0 0,0
13.11.2019 01:00:00 0,8 0,2 -3,0 9,3 12,8 9 5 14 7 SSE 1005,0 11 0 0,0
13.11.2019 00:00:00 1,6 0,9 -2,3 9,3 12,8 6 3 12 7 SSE 1004,5 18 0 0,0
12.11.2019 23:00:00 1,7 0,8 -1,1 9,4 12,8 7 4 11 6 SE 1004,6 30 0 0,0
12.11.2019 22:00:00 3,4 2,1 -0,3 9,4 12,8 7 4 16 9 S 1004,5 53 0 0,0
12.11.2019 21:00:00 4,3 2,6 2,1 9,4 12,9 8 4 16 8 SSW 1005,0 20 0 0,0
12.11.2019 20:00:00 4,8 2,7 0,8 9,4 12,8 10 5 22 12 SW 1005,1 60 0 0,2
12.11.2019 19:00:00 3,9 2,3 1,3 9,4 12,9 2 1 23 12 NNW 1005,4 60 0 0,8
12.11.2019 18:00:00 5,6 3,3 4,3 9,3 12,9 11 6 32 17 W 1005,6 3,7 0 1,2
12.11.2019 17:00:00 6,9 1,8 5,5 9,2 12,9 13 7 27 14 SW 1005,0 60 19 0,0
12.11.2019 16:00:00 7,4 1,7 7,3 9,2 12,9 14 8 32 17 WSW 1004,9 59 15 0,0
12.11.2019 15:00:00 8,1 2,5 8,7 9,2 12,9 20 11 46 25 SW 1005,2 57 39 0,0
12.11.2019 14:00:00 8,5 2,9 8,6 9,2 12,9 22 12 41 22 WSW 1005,2 40 17 0,0
12.11.2019 13:00:00 8,0 3,1 7,8 9,2 12,9 24 13 44 24 SW 1005,3 48 10 0,0
12.11.2019 12:00:00 7,1 3,0 7,3 9,2 13,0 19 10 46 25 SSW 1006,1 46 2 0,0
12.11.2019 11:00:00 6,5 2,8 5,9 9,2 12,9 29 16 49 26 SSW 1006,9 47 7 0,0
12.11.2019 10:00:00 5,5 2,8 5,2 9,2 13,0 19 10 40 22 S 1007,1 44 0 0,0
12.11.2019 09:00:00 5,1 2,8 4,7 9,2 13,0 22 12 40 21 S 1007,6 47 0 0,0
12.11.2019 08:00:00 5,0 2,5 - - - 18 10 35 19 S 1007,6 50 - 0,0
12.11.2019 07:00:00 4,9 2,8 4,2 9,3 13,0 19 11 35 19 S 1007,6 51 0 0,0
12.11.2019 06:00:00 4,7 2,9 3,7 9,3 13,0 18 10 29 16 S 1008,2 45 0 0,0
12.11.2019 05:00:00 4,5 2,5 3,2 9,3 13,0 9 5 26 14 S 1008,7 36 0 0,0
12.11.2019 04:00:00 4,8 2,5 3,9 9,4 13,0 13 7 33 18 SSW 1009,0 55 0 0,0
12.11.2019 03:00:00 4,8 2,8 3,9 9,4 13,0 10 6 22 12 SSW 1009,2 52 0 0,0
12.11.2019 02:00:00 4,9 2,8 3,5 9,4 13,1 13 7 27 15 SW 1009,4 60 0 0,0
12.11.2019 01:00:00 5,2 3,0 3,5 9,4 13,1 16 9 30 16 WSW 1009,2 60 0 0,0
12.11.2019 00:00:00 5,8 3,3 3,8 9,4 13,0 10 5 21 11 WSW 1008,9 53 0 0,0
11.11.2019 23:00:00 5,5 3,8 3,7 9,4 13,1 6 3 19 11 SSW 1008,5 20 0 0,0
11.11.2019 22:00:00 5,5 3,7 4,3 9,5 13,1 11 6 22 12 WSW 1008,0 60 0 0,0
11.11.2019 21:00:00 5,8 4,0 4,4 9,4 13,1 10 6 27 14 WSW 1007,5 60 0 0,0
11.11.2019 20:00:00 5,7 4,3 4,8 9,4 13,1 10 5 28 15 SW 1007,1 44 0 0,2
11.11.2019 19:00:00 5,4 4,2 4,5 9,4 13,1 10 6 19 10 S 1006,8 10 0 0,6
11.11.2019 18:00:00 5,1 3,6 4,3 9,4 13,1 12 7 36 20 S 1006,6 9 0 0,4
11.11.2019 17:00:00 5,3 2,8 4,7 9,4 13,2 20 11 40 22 S 1006,5 18 5 0,0
11.11.2019 16:00:00 5,8 2,6 5,7 9,4 13,2 18 10 34 18 S 1006,5 46 21 0,0
11.11.2019 15:00:00 6,3 3,1 6,6 9,3 13,2 20 11 33 18 S 1007,0 37 15 0,0
11.11.2019 14:00:00 5,9 3,1 6,8 9,3 13,2 17 9 29 16 S 1008,1 30 2 0,0
11.11.2019 13:00:00 5,2 3,2 6,1 9,3 13,2 12 6 25 13 S 1009,2 20 0 0,0
11.11.2019 12:00:00 4,3 2,8 4,9 9,3 13,2 16 9 24 13 S 1010,2 19 2 0,0
11.11.2019 11:00:00 2,9 2,5 2,9 9,3 13,2 14 8 25 13 SSE 1011,3 11 0 0,0
11.11.2019 10:00:00 1,8 1,5 2,4 9,3 13,2 10 5 18 10 S 1012,3 7 0 0,0
11.11.2019 09:00:00 1,4 1,3 1,1 9,4 13,2 8 5 14 7 SSE 1013,1 1,9 0 0,0
11.11.2019 08:00:00 0,7 0,6 0,5 9,4 13,2 6 4 13 7 SE 1013,7 0,2 0 0,0
11.11.2019 07:00:00 0,4 0,3 0,5 9,4 13,3 5 3 14 8 ESE 1014,4 0,1 0 0,0
11.11.2019 06:00:00 0,4 0,3 0,5 9,4 13,3 8 5 14 7 SE 1014,8 0,1 0 0,0
11.11.2019 05:00:00 0,7 0,6 0,8 9,5 13,3 3 2 13 7 E 1015,5 0,1 0 0,0
11.11.2019 04:00:00 0,8 0,7 0,9 9,5 13,3 4 2 10 5 E 1016,0 0,1 0 0,0
11.11.2019 03:00:00 1,0 0,7 1,0 9,5 13,3 4 2 8 4 E 1015,9 0,1 0 0,0
11.11.2019 02:00:00 1,1 0,8 0,9 9,6 13,3 3 2 12 7 NNE 1015,7 0,1 0 0,0
11.11.2019 01:00:00 1,4 1,0 -2,0 9,6 13,3 4 2 10 5 E 1016,1 6 0 0,0
11.11.2019 00:00:00 1,7 0,8 -0,3 9,6 13,3 10 5 14 7 ESE 1016,4 8 0 0,0
10.11.2019 23:00:00 4,2 3,0 1,0 9,6 13,3 1 1 8 4 NNE 1016,4 13 0 0,0
10.11.2019 22:00:00 5,0 3,8 4,0 9,6 13,4 6 4 10 6 ENE 1016,2 13 0 0,0
10.11.2019 21:00:00 5,3 3,9 3,1 9,6 13,4 2 1 9 5 NE 1015,9 14 0 0,0
10.11.2019 20:00:00 5,2 3,8 3,4 9,6 13,4 5 3 10 5 ESE 1015,9 17 0 0,0
10.11.2019 19:00:00 6,2 4,5 5,5 9,5 13,4 6 4 13 7 E 1015,8 21 0 0,0
10.11.2019 18:00:00 6,9 4,6 5,7 9,4 13,4 2 1 3 2 NNE 1015,5 29 0 0,0
10.11.2019 17:00:00 7,3 4,4 6,5 9,4 13,4 3 2 10 6 SE 1014,6 39 0 0,0
10.11.2019 16:00:00 7,6 4,5 7,3 9,3 13,4 7 4 11 6 ESE 1014,0 44 0 0,0
10.11.2019 15:00:00 7,9 4,3 8,4 9,3 13,4 7 4 13 7 S 1013,2 48 0 0,0
10.11.2019 14:00:00 8,1 4,5 9,6 9,2 13,4 3 2 11 6 E 1012,8 29 2 0,0
10.11.2019 13:00:00 7,4 3,8 9,0 9,3 13,4 4 2 8 5 E 1012,4 23 45 0,0
10.11.2019 12:00:00 4,5 2,7 5,1 9,3 13,4 4 2 13 7 E 1012,5 10 8 0,0
10.11.2019 11:00:00 2,4 1,5 2,0 9,4 13,5 4 2 9 5 NE 1012,5 8 0 0,0
10.11.2019 10:00:00 0,8 0,5 -0,5 9,5 13,5 3 2 6 3 SSE 1012,2 7 0 0,0
10.11.2019 09:00:00 -0,7 -1,0 -2,6 9,6 13,5 4 2 8 4 S 1011,4 0,6 14 0,0
10.11.2019 08:00:00 -2,0 -2,4 -5,9 9,7 13,5 4 2 6 4 S 1010,7 15 0 0,0
10.11.2019 07:00:00 -2,7 -3,4 -5,4 9,7 13,5 3 2 8 4 SSE 1010,1 0,8 0 0,0
10.11.2019 06:00:00 -1,8 -2,2 -4,9 9,9 13,5 4 2 7 4 S 1009,4 5 0 0,0
10.11.2019 05:00:00 -1,8 -2,2 -5,9 9,9 13,5 5 3 6 4 SSE 1009,0 7 0 0,0
10.11.2019 04:00:00 -1,6 -2,2 -5,3 10,0 13,5 3 2 6 4 SE 1008,6 3,6 0 0,0
10.11.2019 03:00:00 -1,5 -2,2 -4,9 10,1 13,5 3 2 5 3 ESE 1008,6 0,8 0 0,0
10.11.2019 02:00:00 -0,7 -1,1 -5,1 10,2 13,5 3 1 5 3 ESE 1008,7 6 0 0,0
10.11.2019 01:00:00 -0,8 -1,2 -4,6 10,3 13,6 4 2 7 4 E 1009,1 3,7 0 0,0
10.11.2019 00:00:00 -0,7 -1,4 -4,5 10,3 13,6 4 2 5 3 ESE 1009,1 5 0 0,0
09.11.2019 23:00:00 0,5 -0,1 -3,2 10,4 13,6 2 1 3 2 SE 1009,1 6 0 0,0
09.11.2019 22:00:00 1,1 0,4 -2,6 10,4 13,6 1 1 11 6 ESE 1009,2 7 0 0,0
09.11.2019 21:00:00 2,0 1,3 -1,5 10,5 13,6 4 2 6 4 ESE 1009,4 10 0 0,0
09.11.2019 20:00:00 1,9 0,9 -1,7 10,5 13,6 4 2 8 4 NNE 1010,1 13 0 0,0
09.11.2019 19:00:00 2,8 1,2 -0,8 10,5 13,6 4 2 11 6 ESE 1010,0 17 0 0,0
09.11.2019 18:00:00 5,2 2,0 1,3 10,4 13,6 6 3 10 5 SE 1010,0 19 0 0,0
09.11.2019 17:00:00 7,3 2,4 5,4 10,4 13,6 4 2 18 10 S 1009,9 59 0 0,0
09.11.2019 16:00:00 8,3 2,3 8,2 10,3 13,6 14 7 25 14 WSW 1010,2 60 49 0,0

tt = Température de l'air
td = dewpoint
tt 5cm = Température de l'air 5cm
tt -20cm = Température de l'air -20cm
tt -100cm = Température de l'air -100cm
ff = Vitesse du vent
fx = gusts
dd = Direction du vent
ppp = reduced air pressure
vv = visibility
sd = Ensoleillement
rr = Quantités de précipitations

stations d'obs. à proximité